Ímóti Sřrvági

Vevmynd ímóti Sřrvági

Terminalur Ímóti Miđvági


Veđriđ á flogvřllinum (metar):

EKVG 111550Z AUTO 13013KT 9999NDV BKN014/// 08/07 Q1013

METAR / TAF frá DMI fyri Vágar                      Veđurtíđindi frá Vága Floghavn

Atlantic Airways

Atlantic Airways heimasíđa

Tíđindi    .

26. januar 2015
Áheitan viđvíkjandi lasaraljós

Veđriđ

Kunning

Vevmyndir

Terminalur